Location: Brenthaven North
(35.9915°N, 86.7950°W)
Time: 21:56:36
(UTC+00:00)

Daily predictions for brighter satellites

Satellite Brightness Start Highest point End
(mag) Time Altitude Azimuth Time Altitude Azimuth Time Altitude Azimuth
OAO 2 Rocket 3.5 23:24:15 10° W 23:29:30 80° S 23:34:49 10° E
Cosmos 1726 Rocket 3.5 23:25:22 10° S 23:29:46 73° E 23:34:07 10° N
Cosmos 1833 Rocket 4.3 23:27:09 10° NNE 23:29:59 14° NE 23:32:48 10° E
Cosmos 2228 3.0 23:26:12 10° S 23:30:35 80° E 23:34:56 10° N
Cosmos 1356 3.8 23:31:42 10° SSE 23:34:57 42° E 23:38:14 10° NNE
Cosmos 1703 4.4 23:32:23 10° NNE 23:35:35 23° ENE 23:38:44 10° SE
Meteor 2-10 4.1 23:33:17 10° S 23:38:13 51° E 23:43:05 10° NNE
Cosmos 921 Rocket 3.4 23:35:16 10° SSW 23:39:45 75° WNW 23:44:15 10° NNE
Cosmos 489 Rocket 4.5 23:35:50 10° S 23:41:58 67° ESE 23:48:07 10° NNE
Cosmos 1953 3.7 23:40:51 10° SSW 23:44:43 43° W 23:48:37 10° N
Cosmos 2058 Rocket 3.0 23:44:01 10° S 23:48:21 75° E 23:52:43 10° N
Envisat 3.0 23:43:47 10° SSE 23:48:48 67° ENE 23:53:51 10° N
Cosmos 292 Rocket 3.7 23:44:34 10° SSW 23:49:19 88° ESE 23:54:05 10° NNE
ASTEX 1 3.4 23:47:55 10° N 23:52:53 73° E 23:57:50 10° S
CSL-04 Debris 4.5 23:48:26 10° SE 23:53:33 44° ENE 23:58:43 10° N
Cosmos 2082 Rocket 3.8 23:51:31 10° NNE 23:54:50 15° NE 23:56:47 13° ENE
